When you browse on this site, cookies collect data to enhance your experience and personalize the content and advertising you see.
Visit our Privacy Policy to learn more. By continuing to use the site, you agree to this use of cookies and data.

Stündliche Wetter 1-e Yuldybaevo

Heute, 8 August, Samstag

Zeit Temperatur Niederschläge Wind Luftdruck Luftfeuchtigkeit
00:00 +19°C° 0 mm 2 m/S 733 mmHg 81%
01:00 +18°C° 0 mm 2 m/S 732 mmHg 84%
02:00 +18°C° 0 mm 2 m/S 732 mmHg 85%
03:00 +18°C° 0 mm 2 m/S 732 mmHg 85%
04:00 +19°C° 0 mm 1 m/S 732 mmHg 85%
05:00 +20°C° 0.1 mm 1 m/S 732 mmHg 84%
06:00 +20°C° 0.1 mm 1 m/S 732 mmHg 84%
07:00 +21°C° 0.1 mm 1 m/S 732 mmHg 83%
08:00 +23°C° 0 mm 1 m/S 731 mmHg 78%
09:00 +24°C° 0 mm 1 m/S 731 mmHg 72%
10:00 +24°C° 0 mm 0 m/S 731 mmHg 66%
11:00 +26°C° 1.6 mm 1 m/S 730 mmHg 68%
12:00 +26°C° 1.6 mm 2 m/S 730 mmHg 71%
13:00 +26°C° 1.6 mm 3 m/S 730 mmHg 73%
14:00 +24°C° 1.1 mm 3 m/S 729 mmHg 79%
15:00 +21°C° 1.1 mm 3 m/S 729 mmHg 86%
16:00 +19°C° 1.1 mm 4 m/S 729 mmHg 92%
17:00 +19°C° 0.3 mm 4 m/S 728 mmHg 92%
18:00 +20°C° 0.3 mm 4 m/S 728 mmHg 93%
19:00 +20°C° 0.3 mm 4 m/S 728 mmHg 93%
20:00 +19°C° 0.1 mm 3 m/S 728 mmHg 94%
21:00 +18°C° 0.1 mm 3 m/S 727 mmHg 95%
22:00 +18°C° 0.1 mm 3 m/S 727 mmHg 96%
23:00 +17°C° 0 mm 3 m/S 727 mmHg 96%

Morgen, 9 August, Sonntag

Zeit Temperatur Niederschläge Wind Luftdruck Luftfeuchtigkeit
00:00 +17°C° 0 mm 3 m/S 726 mmHg 96%
01:00 +17°C° 0 mm 2 m/S 726 mmHg 96%
02:00 +17°C° 0.2 mm 2 m/S 726 mmHg 97%
03:00 +17°C° 0.2 mm 2 m/S 725 mmHg 97%
04:00 +17°C° 0.2 mm 2 m/S 725 mmHg 98%
05:00 +17°C° 0.1 mm 2 m/S 725 mmHg 97%
06:00 +17°C° 0.1 mm 2 m/S 725 mmHg 97%
07:00 +17°C° 0.1 mm 2 m/S 724 mmHg 97%
08:00 +17°C° 0.3 mm 3 m/S 724 mmHg 96%
09:00 +17°C° 0.3 mm 3 m/S 724 mmHg 96%
10:00 +15°C° 0.3 mm 4 m/S 724 mmHg 96%
11:00 +15°C° 0 mm 4 m/S 724 mmHg 94%
12:00 +15°C° 0 mm 4 m/S 724 mmHg 93%
13:00 +15°C° 0 mm 4 m/S 724 mmHg 91%
14:00 +15°C° 0 mm 4 m/S 724 mmHg 90%
15:00 +15°C° 0 mm 4 m/S 724 mmHg 89%
16:00 +16°C° 0 mm 3 m/S 724 mmHg 88%
17:00 +16°C° 0 mm 3 m/S 724 mmHg 88%
18:00 +16°C° 0 mm 2 m/S 723 mmHg 88%
19:00 +16°C° 0 mm 1 m/S 723 mmHg 88%
20:00 +16°C° 0.2 mm 1 m/S 723 mmHg 89%
21:00 +16°C° 0.2 mm 2 m/S 723 mmHg 91%
22:00 +15°C° 0.2 mm 2 m/S 723 mmHg 93%
23:00 +14°C° 0 mm 3 m/S 723 mmHg 94%

übermorgen, 10 August, Montag

Zeit Temperatur Niederschläge Wind Luftdruck Luftfeuchtigkeit
00:00 +14°C° 0 mm 5 m/S 723 mmHg 94%
01:00 +15°C° 0 mm 6 m/S 723 mmHg 94%
02:00 +15°C° 0 mm 6 m/S 723 mmHg 93%
03:00 +15°C° 0 mm 6 m/S 723 mmHg 92%
04:00 +15°C° 0 mm 6 m/S 723 mmHg 90%
05:00 +14°C° 0 mm 6 m/S 723 mmHg 91%
06:00 +14°C° 0 mm 7 m/S 723 mmHg 91%
07:00 +14°C° 0 mm 7 m/S 724 mmHg 92%
08:00 +14°C° 0 mm 7 m/S 724 mmHg 91%
09:00 +14°C° 0 mm 7 m/S 724 mmHg 90%
10:00 +14°C° 0 mm 7 m/S 724 mmHg 89%
11:00 +12°C° 0.1 mm 7 m/S 725 mmHg 89%
12:00 +12°C° 0.1 mm 7 m/S 725 mmHg 90%
13:00 +12°C° 0.1 mm 7 m/S 725 mmHg 90%
14:00 +12°C° 0.3 mm 7 m/S 726 mmHg 91%
15:00 +12°C° 0.3 mm 7 m/S 726 mmHg 93%
16:00 +13°C° 0.3 mm 6 m/S 727 mmHg 94%
17:00 +13°C° 0.1 mm 6 m/S 727 mmHg 94%
18:00 +13°C° 0.1 mm 6 m/S 727 mmHg 95%
19:00 +13°C° 0.1 mm 6 m/S 727 mmHg 95%
20:00 +13°C° 0 mm 6 m/S 728 mmHg 95%
21:00 +13°C° 0 mm 5 m/S 728 mmHg 94%
22:00 +13°C° 0 mm 5 m/S 728 mmHg 94%
23:00 +13°C° 0 mm 5 m/S 728 mmHg 94%

11 August, Dienstag

Zeit Temperatur Niederschläge Wind Luftdruck Luftfeuchtigkeit
00:00 +13°C° 0 mm 5 m/S 728 mmHg 93%
01:00 +13°C° 0 mm 5 m/S 728 mmHg 93%
02:00 +13°C° 0 mm 6 m/S 728 mmHg 93%
03:00 +13°C° 0 mm 6 m/S 729 mmHg 92%
04:00 +13°C° 0 mm 6 m/S 729 mmHg 92%
05:00 +13°C° 0 mm 6 m/S 729 mmHg 90%
06:00 +13°C° 0 mm 6 m/S 729 mmHg 88%
07:00 +13°C° 0 mm 6 m/S 729 mmHg 87%
08:00 +14°C° 0 mm 6 m/S 729 mmHg 82%
09:00 +14°C° 0 mm 6 m/S 730 mmHg 78%
10:00 +15°C° 0 mm 6 m/S 730 mmHg 74%
11:00 +16°C° 0 mm 6 m/S 730 mmHg 71%
12:00 +16°C° 0 mm 6 m/S 730 mmHg 69%
13:00 +17°C° 0 mm 6 m/S 730 mmHg 67%
14:00 +17°C° 0 mm 6 m/S 731 mmHg 66%
15:00 +17°C° 0 mm 6 m/S 731 mmHg 65%
16:00 +17°C° 0 mm 6 m/S 731 mmHg 65%
17:00 +17°C° 0 mm 5 m/S 731 mmHg 69%
18:00 +17°C° 0 mm 4 m/S 732 mmHg 73%
19:00 +16°C° 0 mm 3 m/S 732 mmHg 77%
20:00 +14°C° 0 mm 3 m/S 732 mmHg 83%
21:00 +13°C° 0 mm 2 m/S 733 mmHg 88%
22:00 +12°C° 0 mm 2 m/S 733 mmHg 94%
23:00 +12°C° 0 mm 2 m/S 733 mmHg 94%

12 August, Mittwoch

Zeit Temperatur Niederschläge Wind Luftdruck Luftfeuchtigkeit
00:00 +11°C° 0 mm 1 m/S 733 mmHg 94%
01:00 +11°C° 0 mm 1 m/S 733 mmHg 94%
02:00 +10°C° 0 mm 1 m/S 733 mmHg 95%
03:00 +10°C° 0 mm 1 m/S 733 mmHg 95%
04:00 +10°C° 0 mm 1 m/S 733 mmHg 95%
05:00 +11°C° 0 mm 1 m/S 734 mmHg 92%
06:00 +12°C° 0 mm 1 m/S 734 mmHg 89%
07:00 +13°C° 0 mm 1 m/S 734 mmHg 86%
08:00 +15°C° 0 mm 2 m/S 734 mmHg 77%
09:00 +17°C° 0 mm 3 m/S 734 mmHg 67%
10:00 +19°C° 0 mm 4 m/S 734 mmHg 58%
11:00 +20°C° 0 mm 4 m/S 734 mmHg 57%
12:00 +20°C° 0 mm 4 m/S 734 mmHg 55%
13:00 +21°C° 0 mm 4 m/S 734 mmHg 54%
14:00 +21°C° 0 mm 4 m/S 734 mmHg 54%
15:00 +21°C° 0 mm 4 m/S 734 mmHg 55%
16:00 +21°C° 0 mm 4 m/S 734 mmHg 56%
17:00 +20°C° 0 mm 3 m/S 734 mmHg 63%
18:00 +19°C° 0 mm 2 m/S 734 mmHg 69%
19:00 +17°C° 0 mm 2 m/S 734 mmHg 76%
20:00 +16°C° 0 mm 1 m/S 735 mmHg 80%
21:00 +14°C° 0 mm 1 m/S 735 mmHg 84%
22:00 +13°C° 0 mm 1 m/S 735 mmHg 88%
23:00 +11°C° 0 mm 0 m/S 735 mmHg 88%

13 August, Donnerstag

Zeit Temperatur Niederschläge Wind Luftdruck Luftfeuchtigkeit
00:00 +11°C° 0 mm 0 m/S 735 mmHg 89%
01:00 +11°C° 0 mm 0 m/S 735 mmHg 89%
02:00 +10°C° 0 mm 0 m/S 735 mmHg 89%
03:00 +10°C° 0 mm 0 m/S 735 mmHg 89%
04:00 +10°C° 0 mm 0 m/S 735 mmHg 89%
05:00 +11°C° 0 mm 0 m/S 735 mmHg 86%
06:00 +13°C° 0 mm 0 m/S 735 mmHg 82%
07:00 +14°C° 0 mm 0 m/S 735 mmHg 79%
08:00 +18°C° 0 mm 1 m/S 735 mmHg 72%
09:00 +20°C° 0 mm 1 m/S 735 mmHg 65%
10:00 +22°C° 0 mm 1 m/S 735 mmHg 57%
11:00 +23°C° 0 mm 2 m/S 735 mmHg 54%
12:00 +24°C° 0 mm 2 m/S 735 mmHg 51%
13:00 +25°C° 0 mm 2 m/S 735 mmHg 48%
14:00 +25°C° 0 mm 2 m/S 734 mmHg 46%
15:00 +25°C° 0 mm 2 m/S 734 mmHg 45%
16:00 +26°C° 0 mm 1 m/S 734 mmHg 44%
17:00 +24°C° 0 mm 1 m/S 734 mmHg 50%
18:00 +23°C° 0 mm 1 m/S 734 mmHg 56%
19:00 +21°C° 0 mm 1 m/S 734 mmHg 62%
20:00 +20°C° 0 mm 1 m/S 734 mmHg 64%
21:00 +18°C° 0 mm 2 m/S 734 mmHg 66%
22:00 +17°C° 0 mm 2 m/S 734 mmHg 68%
23:00 +17°C° 0 mm 2 m/S 734 mmHg 68%
Mehr zeigen